ELECTRON KICK STAGE R/B, 58901

Orbit data source: Space-Track

ELECTRON KICK STAGE R/B, 58901 is space debris in SSO originally from a launch on Wed, 31 Jan 2024 UTC launched from the Rocket Lab Launch Complex (RLLC). Debris objects in space refer to the collection of defunct objects orbiting the Earth. Examples of debris include non-operational satellites, rocket bodies, and fragments generated from explosions, collisions, or faulty payload assembly.

Loading next visibility...
Identifier
58901, 2024-022C
Orbit
SSO
Country
Flag of USUS
Related business
Manufacturer
Rocket Lab
Mission
Spacecraft
Bus & Motor
KICK STAGE, CURIE
Mass
~43 kg wet, ~43 kg dry
Launch date (UTC)
2024-01-31 (3 years ago)
Launch vehicle
Unknown
Launch site
Rocket Lab Launch Complex (RLLC)
Object type
Payload
Rocket body
Debris
Shape & HBR
Trunc Cone, 0.7 m
Radar Cross Section
0.760 m², Large (>1 m²)

Expand to show TLE details & history
Last TLE update: 14 hours ago

TLE from 14 hours ago
0 ELECTRON KICK STAGE R/B
1 58901U 24022C   26255.56059020  .00058498  00000-0  57135-3 0  9998
2 58901  97.3875 116.6334 0006245 116.3196 243.8706 15.65985690146399
Epoch: 2026-09-12T13:27Z
TLE epoch observation values (Epoch: 2026-09-12T13:27:14.993Z)
Latitude
-0.00002°
Longitude
-76.7469°
Altitude
375.417 km
Speed
7.683 km/s
True Right ascension
07h 46m 32s
True Declination
0° 00' 00"
Sunlit
Object was in daylight at epoch
Visualization orbit readout
Latitude
Unknown
Longitude
Unknown
Altitude
Unknown
Speed
Unknown
Apparent Right ascension
Unknown
Apparent Declination
Unknown
Sunlit
N/A
Visualization observer readout
Local Sidereal Time
20:03:40
Azimuth
Unknown
Elevation
Unknown
Doppler factor
Unknown
Orbital elements
Apogee altitude
371.522 km
Perigee altitude
363.097 km
Semi-major axis
6,745.446 km
Eccentricity
0.00062
Inclination
97.3875°
RAAN
116.6334°
Arg. of periapsis
116.3196°
True anomaly
243.80637°
Mean anomaly
243.8706°
Eccentric anomaly
243.83848°
Mean motion
3.91766 °/min
Orbital period
91.89 mins
BSTAR
0.00057135
Loading maneuver chart data...
Computing Atmospheric mass density...
Loading historical data...
Loading historical data...
Loading historical data...
Loading historical data...
Loading historical data...
Loading historical data...
Loading historical data...

Documentation

Showing up to 5 results
|